SUCHAI 1
1 42788U 17036Z 22153.07332670 .00009361 00000-0 32123-3 0 9990
2 42788 97.2004 197.0949 0009621 28.7174 331.4596 15.30316104274838
SKCUBE
1 42789U 17036AA 22153.58600493 .00007841 00000-0 27539-3 0 9994
2 42789 97.1996 197.0765 0009731 28.1253 332.0511 15.29613624274804
VZLUSAT 1
1 42790U 17036AB 22153.10008415 .00011861 00000-0 37324-3 0 9990
2 42790 97.2026 199.4831 0008107 23.7627 336.3989 15.33060104274892
VENTA 1
1 42791U 17036AC 22153.08966263 .00007310 00000-0 26123-3 0 9991
2 42791 97.2000 196.4968 0009621 30.6445 329.5355 15.29070303274719
Robusta 1B
1 42792U 17036AD 22153.08870476 .00008212 00000-0 28414-3 0 9999
2 42792 97.1997 197.1453 0009331 30.1576 330.0200 15.30091156274772
D-SAT
1 42794U 17036AF 22153.53149095 .00000958 00000-0 85188-4 0 9998
2 42794 97.4509 159.7322 0124507 134.6466 226.4987 14.92562985269253
TechnoSat
1 42829U 17042E 22153.86407708 .00000856 00000-0 89782-4 0 9999
2 42829 97.4226 8.8536 0015411 59.7702 300.5041 14.91833351265913
QIKCOM-1
1 42983U 98067NF 22153.78438157 .00106570 15623-4 27960-3 0 9999
2 42983 51.6294 259.3676 0005889 308.8044 51.2437 15.94699864262597
AO-91
1 43017U 17073E 22153.51099754 .00001636 00000-0 12851-3 0 9992
2 43017 97.6766 48.3145 0247567 236.6019 121.1292 14.81329593244903
PICSAT
1 43132U 18004X 22153.46329989 .00007869 00000-0 26408-3 0 9992
2 43132 97.3721 229.9262 0008436 60.8488 299.3596 15.31116216244113
AO-92
1 43137U 18004AC 22153.63473620 .00006207 00000-0 22176-3 0 9991
2 43137 97.3687 228.9268 0008784 63.1498 297.0639 15.29159735244075
TianYi 2
1 43155U 18008A 22153.70777427 .00006728 00000-0 36077-3 0 9998
2 43155 97.3530 212.5807 0016016 190.3214 266.0569 15.15181497241043
Zhou Enlai
1 43156U 18008B 22153.73053255 .00006930 00000-0 37424-3 0 9990
2 43156 97.3578 212.4743 0013341 190.4332 318.2224 15.14953463240972
TianYi 6
1 43158U 18008D 22153.63812066 .00005983 00000-0 33291-3 0 9999
2 43158 97.3531 210.3951 0013219 189.5461 321.7885 15.13943310240866
S-Net D
1 43186U 18014G 22153.53155114 .00001159 00000-0 10340-3 0 9991
2 43186 97.6587 59.5566 0010512 354.9058 5.2055 14.97861525236685
S-Net B
1 43187U 18014H 22153.53166661 .00001154 00000-0 10291-3 0 9991
2 43187 97.6584 59.5090 0010494 354.9170 5.1944 14.97859870236685
S-Net A
1 43188U 18014J 22153.73234858 .00001158 00000-0 10329-3 0 9994
2 43188 97.6588 59.7681 0010465 354.3662 5.7441 14.97859687236714
S-Net C
1 43189U 18014K 22153.26540998 .00001169 00000-0 10421-3 0 9993
2 43189 97.6583 59.2367 0010495 355.8308 4.2825 14.97856075235191
FMN 1
1 43192U 18015A 22153.72971067 .00023497 00000-0 63360-3 0 9992
2 43192 97.5320 298.4505 0011498 84.8740 24.6925 15.37741885241187
Shaonian Xing
1 43199U 18015H 22153.69848196 .00014872 00000-0 45417-3 0 9991
2 43199 97.5110 293.7571 0014200 96.8759 1.8375 15.33904086241185
SurfSat
1 43614U 18070B 22153.77494283 .00026521 00000-0 40462-3 0 9996
2 43614 93.0320 92.5197 0014965 82.1899 278.1062 15.54240697208786
CP-7 DAVE
1 43615U 18070C 22153.32175535 .00021466 00000-0 34145-3 0 9998
2 43615 93.0308 92.1935 0015271 84.0349 276.2652 15.53101712208687
ELFIN-B
1 43616U 18070D 22153.55962709 .00056003 00000-0 56366-3 0 9995
2 43616 93.0215 93.3761 0013577 82.1195 278.1614 15.65130360209022
ELFIN-A
1 43617U 18070E 22153.32803879 .00058237 00000-0 54183-3 0 9999
2 43617 93.0283 94.5912 0012678 81.3562 278.9143 15.67106280209031
CubeBel-1
1 43666U 18083E 22153.68707409 .00009118 00000-0 38926-3 0 9999
2 43666 97.4207 182.5414 0013928 33.3786 106.4398 15.23030436199236
Changshagaoxin
1 43669U 18083H 22153.71765520 .00008595 00000-0 38459-3 0 9993
2 43669 97.4149 178.5928 0010560 33.5508 101.7450 15.21479361199062
Ten-Koh
1 43677U 18084G 22153.58189570 .00000899 00000-0 96595-4 0 9998
2 43677 97.9622 283.4990 0014933 324.4614 35.5608 14.91066791195469
PO-101
1 43678U 18084H 22153.83081631 .00000558 00000-0 60625-4 0 9993
2 43678 97.9673 286.9250 0009494 341.4463 18.6385 14.92150969195679
IRVINE 01
1 43693U 18088D 22153.49410542 .00022468 00000-0 62003-3 0 9998
2 43693 85.0280 320.9828 0013405 162.2004 197.9718 15.36864448197929
QO-100
1 43700U 18090A 22153.01176111 .00000154 00000-0 00000-0 0 9993
2 43700 0.0135 304.2983 0000867 139.4468 196.7921 1.00275899 12874
Reaktor Hello World
1 43743U 18096AA 22153.46017530 .00008045 00000-0 24853-3 0 9996
2 43743 97.3525 233.3933 0016716 113.1160 247.1846 15.33660394195663
MinXSS-2
1 43758U 18099A 22153.61319099 .00002273 00000-0 20069-3 0 9999
2 43758 97.6252 221.8883 0013580 320.5417 39.4815 14.97300700190888
AO-95
1 43770U 18099N 22153.14368599 .00001835 00000-0 16684-3 0 9991
2 43770 97.6216 219.8912 0013094 333.6725 26.3830 14.96380514190724
RANGE-B
1 43772U 18099Q 22153.14444197 .00002500 00000-0 22201-3 0 9994
2 43772 97.6325 221.5300 0012193 318.8764 41.1538 14.96987629190747
RANGE-A
1 43773U 18099R 22153.12858150 .00001648 00000-0 15184-3 0 9995
2 43773 97.6140 218.7830 0012005 319.4679 40.5647 14.95986943190700
MOVE-II
1 43780U 18099Y 22153.45023238 .00002446 00000-0 21388-3 0 9990
2 43780 97.6236 221.2748 0011767 324.2288 35.8145 14.97613411190816
SNUSat 2
1 43782U 18099AA 22153.45992929 .00001753 00000-0 15901-3 0 9998
2 43782 97.6207 220.6566 0010976 316.0152 44.0195 14.96546548190796
SnugLite
1 43784U 18099AC 22153.43275983 .00000948 00000-0 87815-4 0 9991
2 43784 97.6171 220.2751 0013812 323.1233 36.9037 14.96753382190815
ITASat 1
1 43786U 18099AE 22153.47282514 .00001936 00000-0 17507-3 0 9993
2 43786 97.6242 221.1218 0013572 323.9225 36.1080 14.96533154190819
EAGLET 1
1 43790U 18099AJ 22153.16927956 .00000638 00000-0 60751-4 0 9998
2 43790 97.6231 221.3559 0012338 328.3956 31.6523 14.96716391190505
ESEO
1 43792U 18099AL 22153.43258002 .00000087 00000-0 12795-4 0 9992
2 43792 97.6186 220.8528 0012301 325.2321 34.8096 14.96168719190581
CSIM
1 43793U 18099AM 22153.43047719 .00001573 00000-0 13695-3 0 9994
2 43793 97.6257 222.1290 0011315 318.6230 41.4134 14.98303652190633
Astrocast 0.1
1 43798U 18099AS 22153.43278499 .00001363 00000-0 12167-3 0 9990
2 43798 97.6243 222.0490 0010848 302.5827 57.4347 14.97538902190863
JO-97
1 43803U 18099AX 22153.42860232 .00000836 00000-0 77508-4 0 9993
2 43803 97.6198 220.8307 0013728 322.5781 37.4483 14.97012922190827
Suomi 100
1 43804U 18099AY 22153.44547309 .00001356 00000-0 12294-3 0 9991
2 43804 97.6186 220.7722 0013766 321.3640 38.6596 14.96915416190836
Al Farabi 2
1 43805U 18099AZ 22153.57178070 .00002309 00000-0 20287-3 0 9991
2 43805 97.6273 221.3571 0013451 320.8816 39.1430 14.97465200190872
CHOMPTT
1 43855U 18104G 22153.24404687 .00004815 00000-0 17773-3 0 9993
2 43855 85.0370 61.2889 0013049 299.9158 60.0790 15.27402042192409
ISAT
1 43879U 18111D 22153.56789075 .00001904 00000-0 16622-3 0 9997
2 43879 97.6679 59.4478 0013451 19.3199 340.8531 14.97934276187440
UWE-4
1 43880U 18111E 22153.23882902 .00001424 00000-0 12506-3 0 9990
2 43880 97.6711 59.8157 0012833 21.0110 339.1637 14.98094421187429
Sparrow
1 43881U 18111F 22153.52473535 .00001627 00000-0 14174-3 0 9999
2 43881 97.6700 60.3176 0012474 13.4599 346.6954 14.98228021187478
Lume 1
1 43908U 18111AJ 22153.20886665 .00005466 00000-0 18885-3 0 9994
2 43908 97.1930 41.4978 0020438 125.0854 235.2307 15.30130900191061
FO-99
1 43937U 19003F 22153.32788500 .00006811 00000-0 23294-3 0 9994
2 43937 97.1307 187.2708 0020366 202.3734 157.6622 15.30372430187661
